This is the latest recevied weather packets stored in our database for station/object KE5VT. If no packets are shown the sender has not sent any weather packets the latest 1 day(s).
| Time | Temp. | Humidity | Pressure | Rain* | Wind** | Luminosity | Snow |
|---|---|---|---|---|---|---|---|
| 1778035809 | 20° C | 61% | 1010.7 hPa | 0 mm | 1.34 m/s, 125° | 0 W/m² | - |
| 1778035506 | 20° C | 60% | 1010.7 hPa | 0 mm | 1.34 m/s, 192° | 0 W/m² | - |
| 1778035201 | 20.56° C | 59% | 1010.5 hPa | 0 mm | 0.45 m/s, 123° | 0 W/m² | - |
| 1778034898 | 20.56° C | 58% | 1010.8 hPa | 0 mm | 0 m/s | 0 W/m² | - |
| 1778034595 | 20.56° C | 58% | 1010.9 hPa | 0 mm | 0 m/s | 0 W/m² | - |
| 1778034293 | 20° C | 57% | 1010.7 hPa | 0 mm | 0.45 m/s, 167° | 0 W/m² | - |
| 1778033991 | 20° C | 56% | 1010.8 hPa | 0 mm | 0 m/s | 0 W/m² | - |
| 1778033688 | 19.44° C | 56% | 1010.8 hPa | 0 mm | 0 m/s | 0 W/m² | - |
| 1778033385 | 20° C | 57% | 1010.8 hPa | 0 mm | 0 m/s | 0 W/m² | - |
| 1778033082 | 20° C | 55% | 1010.9 hPa | 0 mm | 0 m/s | 0 W/m² | - |
| 1778032779 | 20° C | 56% | 1010.8 hPa | 0 mm | 0 m/s | 0 W/m² | - |
| 1778032477 | 20° C | 56% | 1010.7 hPa | 0 mm | 0 m/s | 0 W/m² | - |
| 1778032174 | 20° C | 57% | 1010.7 hPa | 0 mm | 0 m/s | 0 W/m² | - |
| 1778031871 | 20° C | 55% | 1010.9 hPa | 0 mm | 0 m/s | 0 W/m² | - |
| 1778031567 | 20° C | 55% | 1010.7 hPa | 0 mm | 0 m/s | 0 W/m² | - |
| 1778031266 | 20° C | 55% | 1010.5 hPa | 0 mm | 0 m/s | 0 W/m² | - |
| 1778030961 | 20.56° C | 54% | 1010.6 hPa | 0 mm | 0 m/s | 0 W/m² | - |
| 1778030658 | 20.56° C | 52% | 1010.7 hPa | 0 mm | 0 m/s | 0 W/m² | - |
| 1778030355 | 20.56° C | 52% | 1010.6 hPa | 0 mm | 0 m/s | 0 W/m² | - |
| 1778030052 | 21.11° C | 53% | 1010.4 hPa | 0 mm | 0 m/s | 0 W/m² | - |
| 1778029749 | 21.11° C | 51% | 1010.5 hPa | 0 mm | 0 m/s | 0 W/m² | - |
| 1778029448 | 21.67° C | 50% | 1010.4 hPa | 0 mm | 0 m/s | 0 W/m² | - |
| 1778029144 | 21.67° C | 50% | 1010.3 hPa | 0 mm | 0 m/s | 0 W/m² | - |
| 1778028842 | 21.67° C | 48% | 1010.2 hPa | 0 mm | 0 m/s | 0 W/m² | - |
| 1778028536 | 22.22° C | 48% | 1010.3 hPa | 0 mm | 0 m/s | 0 W/m² | - |
* Rain latest hour (hover to see other rain measurements)
** Current wind speed in m/s (hover to see current wind gust speed)